TimeCST,TemperatureF,Dew PointF,Humidity,Sea Level PressureIn,VisibilityMPH,Wind Direction,Wind SpeedMPH,Gust SpeedMPH,PrecipitationIn,Events,Conditions,WindDirDegrees,DateUTC
12:53 AM,59.0,57.9,96,30.22,8.0,North,5.8,-,N/A,,Overcast,350,2013-11-23 06:53:00
1:53 AM,59.0,57.9,96,30.22,5.0,North,9.2,-,N/A,,Overcast,350,2013-11-23 07:53:00
2:53 AM,57.9,57.9,100,30.22,5.0,North,6.9,-,N/A,,Overcast,360,2013-11-23 08:53:00
3:53 AM,59.0,59.0,100,30.22,6.0,North,6.9,-,N/A,,Overcast,360,2013-11-23 09:53:00
4:50 AM,60.8,59.0,94,30.20,5.0,NNE,8.1,-,N/A,,Overcast,20,2013-11-23 10:50:00
4:53 AM,60.1,59.0,96,30.22,6.0,NNE,10.4,-,N/A,,Overcast,20,2013-11-23 10:53:00
5:35 AM,60.8,59.0,94,30.21,3.0,NNE,9.2,-,0.00,Rain,Light Rain,20,2013-11-23 11:35:00
5:43 AM,60.8,59.0,94,30.22,2.5,North,8.1,-,0.00,Rain,Light Rain,10,2013-11-23 11:43:00
5:53 AM,59.0,57.9,96,30.24,3.0,NNE,11.5,-,0.01,Rain,Light Rain,20,2013-11-23 11:53:00
6:02 AM,59.0,57.2,94,30.22,4.0,NNE,10.4,-,0.00,Rain,Light Rain,20,2013-11-23 12:02:00
6:53 AM,57.0,55.9,96,30.27,7.0,NNE,12.7,-,0.00,,Overcast,20,2013-11-23 12:53:00
7:53 AM,55.0,53.1,93,30.29,3.0,NNE,16.1,-,N/A,,Overcast,20,2013-11-23 13:53:00
8:53 AM,53.1,51.1,93,30.30,10.0,NNE,17.3,23.0,N/A,,Overcast,30,2013-11-23 14:53:00
9:53 AM,52.0,50.0,93,30.32,10.0,NNE,18.4,-,N/A,,Overcast,20,2013-11-23 15:53:00
10:53 AM,53.1,48.9,86,30.33,10.0,NNE,16.1,24.2,N/A,,Overcast,30,2013-11-23 16:53:00
11:19 AM,53.6,48.2,82,30.29,10.0,NNE,18.4,25.3,N/A,,Overcast,30,2013-11-23 17:19:00
11:53 AM,52.0,46.9,83,30.31,10.0,NNE,18.4,-,N/A,,Overcast,30,2013-11-23 17:53:00
12:53 PM,52.0,46.0,80,30.30,10.0,NNE,17.3,23.0,N/A,,Overcast,30,2013-11-23 18:53:00
1:34 PM,51.8,46.4,82,30.27,10.0,NNE,18.4,21.9,N/A,,Overcast,20,2013-11-23 19:34:00
1:53 PM,51.1,46.9,86,30.29,10.0,NNE,17.3,24.2,N/A,,Overcast,20,2013-11-23 19:53:00
2:53 PM,50.0,45.0,83,30.29,10.0,NNE,20.7,27.6,N/A,,Overcast,20,2013-11-23 20:53:00
3:17 PM,50.0,44.6,82,30.27,10.0,NNE,21.9,26.5,N/A,,Overcast,30,2013-11-23 21:17:00
3:53 PM,50.0,44.1,80,30.30,10.0,NNE,19.6,26.5,N/A,,Overcast,30,2013-11-23 21:53:00
4:53 PM,48.9,44.1,83,30.30,10.0,NNE,20.7,26.5,N/A,,Overcast,20,2013-11-23 22:53:00
5:53 PM,48.9,44.1,83,30.32,10.0,NNE,17.3,23.0,N/A,,Overcast,20,2013-11-23 23:53:00
6:53 PM,48.0,44.1,86,30.35,10.0,NNE,17.3,24.2,0.00,Rain,Light Rain,30,2013-11-24 00:53:00
7:33 PM,46.4,44.6,93,30.33,10.0,NE,19.6,25.3,0.01,Rain,Light Rain,40,2013-11-24 01:33:00
7:53 PM,46.9,43.0,86,30.37,10.0,NNE,16.1,-,0.01,,Overcast,30,2013-11-24 01:53:00
8:53 PM,46.9,43.0,86,30.38,10.0,NNE,15.0,24.2,N/A,,Overcast,20,2013-11-24 02:53:00
9:44 PM,46.4,41.0,81,30.35,10.0,NNE,21.9,33.4,N/A,,Scattered Clouds,30,2013-11-24 03:44:00
9:53 PM,46.9,39.9,77,30.38,10.0,NNE,19.6,33.4,N/A,,Mostly Cloudy,30,2013-11-24 03:53:00
10:53 PM,46.0,39.0,76,30.39,10.0,NNE,15.0,-,N/A,,Clear,30,2013-11-24 04:53:00
11:53 PM,45.0,37.0,74,30.38,10.0,NNE,16.1,25.3,N/A,,Clear,30,2013-11-24 05:53:00